This demonstration page uses our WeatherBlox Daily Observations layout. Learn more.

39.29038, -76.61219

Hourly Observations for July 23, 2018

Temp ( °F °C ) Dew Point ( °F °C ) Humidity (%) Winds ( mph kmh ) Pressure ( in mb ) Visibility ( mi km ) Precip ( " mm )
12:54 am 00:54 undefined 77 25 75 23.9 94 94 undefined N/A 29.9 1013 N/A 0 0
1:54 am 01:54 undefined 78 25.6 76 24.4 93 93 undefined N/A 29.88 1012 N/A 0.02 0.508
2:54 am 02:54 undefined 79 26.1 76 24.4 90 90 undefined N/A 29.88 1012 N/A 0.03 0.762
3:54 am 03:54 undefined 79 26.1 76 24.4 90 90 undefined N/A 29.88 1012 N/A 0.01 0.254
4:54 am 04:54 undefined 79 26.1 77 25 94 94 undefined N/A 29.91 1013 N/A 0 0
5:54 am 05:54 undefined 79 26.1 76 24.4 90 90 undefined N/A 29.91 1013 N/A 0 0
6:54 am 06:54 undefined 79 26.1 76 24.4 90 90 undefined N/A 29.93 1014 N/A 0 0
7:54 am 07:54 undefined 79 26.1 72 22.2 79 79 undefined N/A 29.97 1015 N/A 0 0
8:54 am 08:54 undefined 79 26.1 72 22.2 79 79 undefined N/A 29.98 1015 N/A 0 0
9:54 am 09:54 undefined 80 26.7 72 22.2 76 76 undefined N/A 29.98 1015 N/A 0 0
10:54 am 10:54 undefined 81 27.2 73 22.8 77 77 undefined N/A 30 1016 N/A 0 0
11:54 am 11:54 undefined 82 27.8 74 23.3 77 77 undefined N/A 30.01 1016 N/A 0 0
12:54 pm 12:54 undefined 83 28.3 73 22.8 72 72 undefined N/A 29.99 1016 N/A 0 0
1:54 pm 13:54 undefined 79 26.1 76 24.4 90 90 undefined N/A 29.94 1014 N/A 0.06 1.524
2:54 pm 14:54 undefined 82 27.8 76 24.4 82 82 undefined N/A 29.98 1015 N/A 0.2 5.08
3:54 pm 15:54 undefined 81 27.2 77 25 88 88 undefined N/A 29.98 1015 N/A 0.05 1.27
4:54 pm 16:54 undefined 85 29.4 75 23.9 72 72 undefined N/A 30 1016 N/A 0 0
5:54 pm 17:54 undefined 80 26.7 75 23.9 85 85 undefined N/A 29.96 1015 N/A 0.04 1.016
6:54 pm 18:54 undefined 81 27.2 75 23.9 82 82 undefined N/A 30 1016 N/A 0 0
7:54 pm 19:54 undefined 79 26.1 76 24.4 90 90 undefined N/A 29.98 1015 N/A 0.37 9.398
8:54 pm 20:54 undefined 79 26.1 75 23.9 88 88 undefined N/A 30.01 1016 N/A 0 0
9:54 pm 21:54 undefined 80 26.7 75 23.9 85 85 undefined N/A 30.05 1018 N/A 0 0
10:54 pm 22:54 undefined 79 26.1 75 23.9 88 88 undefined N/A 30.05 1018 N/A 0 0
11:54 pm 23:54 undefined 79 26.1 75 23.9 88 88 undefined N/A 30.05 1018 N/A 0 0

Powered by AerisWeather